| time (UTC) | temp F | wind direction | speed MPH | gust MPH | rain 1hr in | rain 24hr in | rain mn in | humidity % | barometer mb |
| 20260906053516 | 71 | 90 | 4.0 | 8.0 | 0.00 | 0.00 | 0.00 | 97 | 1017.2 |
| 20260906052516 | 71 | 113 | 3.0 | 6.0 | 0.00 | 0.00 | 0.00 | 97 | 1017.4 |
| 20260906051516 | 71 | 90 | 5.0 | 8.0 | 0.00 | 0.00 | 0.00 | 97 | 1017.2 |
| 20260906050537 | 71 | 113 | 4.0 | 8.0 | 0.00 | 0.00 | 0.00 | 96 | 1016.9 |
| 20260906045518 | 72 | 113 | 4.0 | 7.0 | 0.00 | 0.00 | 0.00 | 96 | 1017.1 |
| 20260906044517 | 72 | 90 | 4.0 | 8.0 | 0.00 | 0.00 | 0.00 | 96 | 1016.9 |
| 20260906043518 | 72 | 113 | 4.0 | 9.0 | 0.00 | 0.00 | 0.00 | 96 | 1016.9 |
| 20260906042517 | 72 | 90 | 3.0 | 7.0 | 0.00 | 0.00 | 0.00 | 96 | 1016.8 |
| 20260906041558 | 72 | 113 | 5.0 | 8.0 | 0.00 | 0.00 | 0.00 | 96 | 1016.8 |
| 20260906040515 | 72 | 113 | 5.0 | 10.0 | 0.00 | 0.00 | 0.00 | 96 | 1016.7 |
| 20260906035517 | 72 | 113 | 4.0 | 8.0 | 0.00 | 0.00 | 0.00 | 95 | 1016.6 |
| 20260906034517 | 72 | 113 | 4.0 | 7.0 | 0.00 | 0.00 | 0.00 | 95 | 1016.6 |
| 20260906033518 | 72 | 90 | 3.0 | 6.0 | 0.00 | 0.00 | 0.00 | 95 | 1016.6 |
| 20260906032518 | 73 | 113 | 3.0 | 7.0 | 0.00 | 0.00 | 0.00 | 95 | 1016.7 |
| 20260906031517 | 73 | 113 | 5.0 | 9.0 | 0.00 | 0.00 | 0.00 | 94 | 1016.7 |
| 20260906030517 | 73 | 113 | 4.0 | 7.0 | 0.00 | 0.00 | 0.00 | 94 | 1016.8 |
| 20260906025517 | 74 | 113 | 4.0 | 7.0 | 0.00 | 0.00 | 0.00 | 93 | 1016.9 |
| 20260906024517 | 74 | 113 | 4.0 | 9.0 | 0.00 | 0.00 | 0.00 | 93 | 1017.0 |
| 20260906023518 | 74 | 135 | 4.0 | 7.0 | 0.00 | 0.00 | 0.00 | 93 | 1017.0 |
| 20260906022517 | 75 | 135 | 5.0 | 8.0 | 0.00 | 0.00 | 0.00 | 92 | 1016.9 |
| 20260906021517 | 75 | 113 | 5.0 | 8.0 | 0.00 | 0.00 | 0.00 | 92 | 1016.8 |
| 20260906020518 | 75 | 113 | 5.0 | 10.0 | 0.00 | 0.00 | 0.00 | 93 | 1016.7 |
| 20260906015517 | 75 | 135 | 3.0 | 7.0 | 0.00 | 0.00 | 0.00 | 94 | 1016.5 |
| 20260906014517 | 75 | 113 | 2.0 | 4.0 | 0.00 | 0.00 | 0.00 | 94 | 1016.5 |
| 20260906013517 | 75 | 113 | 2.0 | 6.0 | 0.00 | 0.00 | 0.00 | 94 | 1016.3 |
| 20260906012518 | 75 | 113 | 2.0 | 7.0 | 0.00 | 0.00 | 0.00 | 93 | 1016.0 |
| 20260906011517 | 75 | 113 | 3.0 | 4.0 | 0.00 | 0.00 | 0.00 | 93 | 1015.9 |
| 20260906010517 | 76 | 113 | 2.0 | 6.0 | 0.00 | 0.00 | 0.00 | 92 | 1015.8 |
| 20260906005517 | 76 | 113 | 2.0 | 4.0 | 0.00 | 0.00 | 0.00 | 92 | 1015.8 |
| 20260906004517 | 77 | 113 | 2.0 | 3.0 | 0.00 | 0.00 | 0.00 | 91 | 1015.8 |
| 20260906003558 | 77 | 113 | 2.0 | 4.0 | 0.00 | 0.00 | 0.00 | 90 | 1015.8 |
| 20260906002517 | 78 | 113 | 2.0 | 3.0 | 0.00 | 0.00 | 0.00 | 88 | 1015.9 |
| 20260906001517 | 78 | 113 | 2.0 | 4.0 | 0.00 | 0.00 | 0.00 | 87 | 1015.8 |
| 20260906000517 | 78 | 113 | 4.0 | 7.0 | 0.00 | 0.00 | 0.00 | 86 | 1015.8 |
| 20260905235537 | 79 | 113 | 5.0 | 10.0 | 0.00 | 0.00 | 0.00 | 86 | 1015.8 |
| 20260905234517 | 79 | 113 | 5.0 | 9.0 | 0.00 | 0.00 | 0.00 | 86 | 1015.8 |
| 20260905233517 | 80 | 135 | 5.0 | 9.0 | 0.00 | 0.00 | 0.00 | 87 | 1015.8 |
| 20260905232517 | 80 | 135 | 6.0 | 11.0 | 0.00 | 0.00 | 0.00 | 87 | 1015.7 |
| 20260905231517 | 80 | 158 | 6.0 | 10.0 | 0.00 | 0.00 | 0.00 | 88 | 1015.8 |
| 20260905230516 | 80 | 158 | 6.0 | 11.0 | 0.00 | 0.00 | 0.00 | 87 | 1015.6 |
| 20260905225516 | 80 | 135 | 7.0 | 10.0 | 0.00 | 0.00 | 0.00 | 87 | 1015.5 |
| 20260905224517 | 81 | 135 | 7.0 | 11.0 | 0.00 | 0.00 | 0.00 | 86 | 1015.5 |
| 20260905223517 | 81 | 135 | 7.0 | 11.0 | 0.00 | 0.00 | 0.00 | 86 | 1015.4 |
| 20260905222537 | 81 | 135 | 6.0 | 10.0 | 0.00 | 0.00 | 0.00 | 86 | 1015.4 |
| 20260905221516 | 82 | 135 | 4.0 | 9.0 | 0.00 | 0.00 | 0.00 | 84 | 1015.4 |
| 20260905220516 | 82 | 113 | 7.0 | 13.0 | 0.00 | 0.00 | 0.00 | 85 | 1015.3 |
| 20260905215517 | 81 | 113 | 7.0 | 10.0 | 0.00 | 0.00 | 0.00 | 85 | 1015.2 |
| 20260905214537 | 82 | 113 | 8.0 | 12.0 | 0.00 | 0.00 | 0.00 | 84 | 1015.0 |
| 20260905213516 | 82 | 113 | 7.0 | 12.0 | 0.00 | 0.00 | 0.00 | 86 | 1015.2 |
| 20260905212516 | 81 | 113 | 7.0 | 12.0 | 0.00 | 0.00 | 0.00 | 86 | 1015.0 |
| 20260905211536 | 81 | 113 | 7.0 | 11.0 | 0.00 | 0.00 | 0.00 | 86 | 1015.2 |
| 20260905210517 | 80 | 113 | 6.0 | 10.0 | 0.00 | 0.00 | 0.00 | 87 | 1015.4 |
| 20260905205516 | 80 | 113 | 6.0 | 13.0 | 0.00 | 0.00 | 0.00 | 87 | 1015.5 |
| 20260905204516 | 81 | 90 | 6.0 | 11.0 | 0.00 | 0.00 | 0.00 | 86 | 1015.3 |
| 20260905203536 | 81 | 90 | 8.0 | 12.0 | 0.00 | 0.00 | 0.00 | 85 | 1015.5 |
| 20260905202537 | 80 | 90 | 7.0 | 12.0 | 0.00 | 0.00 | 0.00 | 87 | 1015.4 |
| 20260905201516 | 80 | 90 | 9.0 | 14.0 | 0.00 | 0.00 | 0.00 | 86 | 1015.4 |
| 20260905200516 | 80 | 90 | 7.0 | 10.0 | 0.00 | 0.00 | 0.00 | 86 | 1015.5 |
| 20260905195517 | 80 | 90 | 7.0 | 11.0 | 0.00 | 0.00 | 0.00 | 87 | 1015.6 |
| 20260905194516 | 80 | 90 | 9.0 | 14.0 | 0.00 | 0.00 | 0.00 | 85 | 1015.3 |
| 20260905193537 | 80 | 90 | 9.0 | 13.0 | 0.00 | 0.00 | 0.00 | 85 | 1015.5 |
| 20260905192516 | 80 | 90 | 7.0 | 11.0 | 0.00 | 0.00 | 0.00 | 86 | 1015.5 |
| 20260905191537 | 79 | 90 | 9.0 | 15.0 | 0.00 | 0.00 | 0.00 | 86 | 1015.6 |
| 20260905190516 | 80 | 90 | 9.0 | 14.0 | 0.00 | 0.00 | 0.00 | 85 | 1015.6 |
| 20260905185516 | 79 | 68 | 9.0 | 13.0 | 0.00 | 0.00 | 0.00 | 87 | 1015.7 |
| 20260905184517 | 79 | 68 | 10.0 | 17.0 | 0.00 | 0.00 | 0.00 | 87 | 1015.6 |
| 20260905183517 | 78 | 45 | 3.0 | 8.0 | 0.00 | 0.00 | 0.00 | 88 | 1015.9 |
| 20260905182516 | 77 | 90 | 10.0 | 16.0 | 0.00 | 0.00 | 0.00 | 90 | 1015.6 |
| 20260905181516 | 76 | 68 | 7.0 | 12.0 | 0.00 | 0.00 | 0.00 | 91 | 1015.8 |
| 20260905180537 | 75 | 90 | 8.0 | 13.0 | 0.00 | 0.00 | 0.00 | 92 | 1016.1 |
| 20260905175516 | 75 | 68 | 8.0 | 12.0 | 0.00 | 0.00 | 0.00 | 93 | 1015.9 |
| 20260905174516 | 75 | 68 | 9.0 | 14.0 | 0.00 | 0.00 | 0.00 | 94 | 1015.9 |
| 20260905173516 | 74 | 68 | 8.0 | 12.0 | 0.00 | 0.00 | 0.00 | 95 | 1016.4 |
| 20260905172516 | 74 | 68 | 8.0 | 12.0 | 0.00 | 0.00 | 0.00 | 96 | 1016.6 |
| 20260905171517 | 73 | 68 | 11.0 | 15.0 | 0.00 | 0.00 | 0.00 | 96 | 1016.6 |
| 20260905170516 | 73 | 68 | 11.0 | 17.0 | 0.00 | 0.00 | 0.00 | 97 | 1016.8 |
| 20260905165516 | 72 | 68 | 9.0 | 14.0 | 0.00 | 0.00 | 0.00 | 97 | 1017.0 |
| 20260905164516 | 72 | 68 | 6.0 | 11.0 | 0.00 | 0.00 | 0.00 | 98 | 1016.9 |
| 20260905163516 | 72 | 90 | 6.0 | 9.0 | 0.00 | 0.00 | 0.00 | 98 | 1017.2 |
| 20260905162516 | 71 | 90 | 6.0 | 10.0 | 0.00 | 0.00 | 0.00 | 98 | 1017.1 |
| 20260905161516 | 71 | 113 | 5.0 | 10.0 | 0.00 | 0.00 | 0.00 | 98 | 1017.3 |
| 20260905160516 | 70 | 90 | 4.0 | 8.0 | 0.00 | 0.00 | 0.00 | 99 | 1017.3 |
| 20260905155516 | 70 | 113 | 4.0 | 8.0 | 0.00 | 0.00 | 0.00 | 99 | 1017.6 |
| 20260905154516 | 70 | 135 | 2.0 | 4.0 | 0.00 | 0.00 | 0.00 | 98 | 1017.8 |
| 20260905153516 | 69 | 135 | 2.0 | 4.0 | 0.00 | 0.00 | 0.00 | 99 | 1017.9 |
| 20260905152515 | 69 | 135 | 2.0 | 3.0 | 0.00 | 0.00 | 0.00 | 98 | 1017.9 |
| 20260905151515 | 69 | 23 | 2.0 | 4.0 | 0.00 | 0.00 | 0.00 | 98 | 1017.6 |
| 20260905150516 | 69 | 23 | 1.0 | 2.0 | 0.00 | 0.00 | 0.00 | 98 | 1017.4 |
| 20260905145515 | 69 | 0.0 | 2.0 | 0.00 | 0.00 | 0.00 | 98 | 1017.8 | |
| 20260905144516 | 68 | 0.0 | 2.0 | 0.00 | 0.00 | 0.00 | 98 | 1017.7 | |
| 20260905143515 | 69 | 23 | 2.0 | 4.0 | 0.00 | 0.00 | 0.00 | 98 | 1017.2 |
| 20260905142536 | 68 | 23 | 3.0 | 4.0 | 0.00 | 0.00 | 0.00 | 98 | 1017.0 |
| 20260905141536 | 68 | 23 | 3.0 | 4.0 | 0.00 | 0.00 | 0.00 | 98 | 1017.0 |
| 20260905140516 | 68 | 23 | 3.0 | 5.0 | 0.00 | 0.00 | 0.00 | 98 | 1017.0 |
| 20260905135516 | 68 | 68 | 1.0 | 3.0 | 0.00 | 0.00 | 0.00 | 98 | 1017.1 |
| 20260905134516 | 68 | 90 | 4.0 | 8.0 | 0.00 | 0.00 | 0.00 | 98 | 1016.6 |
| 20260905133515 | 68 | 90 | 4.0 | 8.0 | 0.00 | 0.00 | 0.00 | 98 | 1016.4 |
| 20260905132517 | 68 | 90 | 3.0 | 8.0 | 0.00 | 0.00 | 0.00 | 98 | 1016.4 |
| 20260905131517 | 68 | 90 | 4.0 | 8.0 | 0.00 | 0.00 | 0.00 | 98 | 1016.3 |
| 20260905130518 | 68 | 68 | 6.0 | 10.0 | 0.00 | 0.00 | 0.00 | 98 | 1016.3 |
| 20260905125517 | 68 | 68 | 4.0 | 6.0 | 0.00 | 0.00 | 0.00 | 98 | 1016.4 |
| 20260905124518 | 68 | 68 | 5.0 | 9.0 | 0.00 | 0.00 | 0.00 | 98 | 1016.4 |
| 20260905123517 | 67 | 45 | 4.0 | 5.0 | 0.00 | 0.00 | 0.00 | 98 | 1016.3 |
| 20260905122517 | 67 | 45 | 3.0 | 4.0 | 0.00 | 0.00 | 0.00 | 98 | 1016.5 |
| 20260905121538 | 67 | 45 | 3.0 | 4.0 | 0.00 | 0.00 | 0.00 | 98 | 1016.1 |
| 20260905120517 | 67 | 45 | 3.0 | 6.0 | 0.00 | 0.00 | 0.00 | 98 | 1015.6 |
| 20260905115518 | 67 | 68 | 3.0 | 6.0 | 0.00 | 0.00 | 0.00 | 98 | 1015.5 |
| 20260905114517 | 67 | 68 | 3.0 | 5.0 | 0.00 | 0.00 | 0.00 | 98 | 1015.6 |
| 20260905113517 | 67 | 68 | 3.0 | 5.0 | 0.00 | 0.00 | 0.00 | 98 | 1015.6 |
| 20260905112518 | 67 | 68 | 3.0 | 5.0 | 0.00 | 0.00 | 0.00 | 98 | 1015.7 |
| 20260905111518 | 67 | 68 | 2.0 | 3.0 | 0.00 | 0.00 | 0.00 | 98 | 1015.5 |
| 20260905110517 | 67 | 68 | 2.0 | 3.0 | 0.00 | 0.00 | 0.00 | 98 | 1015.5 |
| 20260905105517 | 67 | 68 | 3.0 | 5.0 | 0.00 | 0.00 | 0.00 | 98 | 1015.3 |
| 20260905104518 | 67 | 68 | 4.0 | 6.0 | 0.00 | 0.00 | 0.00 | 98 | 1015.1 |
| 20260905103517 | 67 | 68 | 4.0 | 5.0 | 0.00 | 0.00 | 0.00 | 98 | 1015.1 |
| 20260905102518 | 67 | 45 | 4.0 | 5.0 | 0.00 | 0.00 | 0.00 | 98 | 1015.1 |
| 20260905101517 | 67 | 68 | 3.0 | 5.0 | 0.00 | 0.00 | 0.00 | 97 | 1015.0 |
| 20260905100537 | 67 | 68 | 4.0 | 6.0 | 0.00 | 0.00 | 0.00 | 97 | 1015.0 |
| 20260905095517 | 67 | 68 | 2.0 | 3.0 | 0.00 | 0.00 | 0.00 | 97 | 1015.0 |
| 20260905094517 | 67 | 68 | 2.0 | 3.0 | 0.00 | 0.00 | 0.00 | 97 | 1015.0 |
| 20260905093542 | 67 | 0.0 | 0.0 | 0.00 | 0.00 | 0.00 | 97 | 1015.2 | |
| 20260905092537 | 67 | 68 | 1.0 | 3.0 | 0.00 | 0.00 | 0.00 | 97 | 1015.1 |
| 20260905091518 | 67 | 68 | 2.0 | 4.0 | 0.00 | 0.00 | 0.00 | 97 | 1014.8 |
| 20260905090517 | 68 | 68 | 3.0 | 6.0 | 0.00 | 0.00 | 0.00 | 97 | 1014.8 |
| 20260905085517 | 68 | 68 | 3.0 | 5.0 | 0.00 | 0.00 | 0.00 | 97 | 1014.4 |
| 20260905084516 | 68 | 68 | 3.0 | 5.0 | 0.00 | 0.00 | 0.00 | 97 | 1014.6 |
| 20260905083517 | 68 | 68 | 4.0 | 7.0 | 0.00 | 0.00 | 0.00 | 96 | 1014.8 |
| 20260905082517 | 69 | 68 | 4.0 | 6.0 | 0.00 | 0.00 | 0.00 | 96 | 1015.0 |
| 20260905081517 | 69 | 68 | 3.0 | 6.0 | 0.00 | 0.00 | 0.00 | 96 | 1015.3 |
| 20260905080516 | 69 | 68 | 4.0 | 6.0 | 0.00 | 0.00 | 0.00 | 96 | 1015.2 |
| 20260905075537 | 69 | 45 | 4.0 | 6.0 | 0.00 | 0.00 | 0.00 | 96 | 1015.2 |
| 20260905074517 | 69 | 45 | 5.0 | 6.0 | 0.00 | 0.00 | 0.00 | 96 | 1015.1 |
| 20260905073537 | 70 | 45 | 5.0 | 7.0 | 0.00 | 0.00 | 0.00 | 96 | 1015.3 |
| 20260905072517 | 70 | 68 | 5.0 | 8.0 | 0.00 | 0.00 | 0.00 | 96 | 1015.3 |
| 20260905071516 | 70 | 68 | 5.0 | 8.0 | 0.00 | 0.00 | 0.00 | 96 | 1015.1 |
| 20260905070517 | 70 | 68 | 5.0 | 8.0 | 0.00 | 0.00 | 0.00 | 95 | 1015.2 |
| 20260905065517 | 70 | 68 | 5.0 | 9.0 | 0.00 | 0.00 | 0.00 | 96 | 1015.2 |
| 20260905064516 | 70 | 68 | 5.0 | 7.0 | 0.00 | 0.00 | 0.00 | 95 | 1015.1 |
| 20260905063517 | 71 | 68 | 3.0 | 5.0 | 0.00 | 0.00 | 0.00 | 95 | 1015.2 |
| 20260905062517 | 71 | 68 | 5.0 | 8.0 | 0.00 | 0.00 | 0.00 | 95 | 1015.2 |
| 20260905061521 | 71 | 68 | 4.0 | 6.0 | 0.00 | 0.00 | 0.00 | 95 | 1015.1 |
| 20260905060517 | 71 | 45 | 4.0 | 6.0 | 0.00 | 0.00 | 0.00 | 95 | 1015.1 |
| 20260905055516 | 71 | 68 | 5.0 | 7.0 | 0.00 | 0.00 | 0.00 | 95 | 1015.1 |
| 20260905054516 | 71 | 68 | 4.0 | 6.0 | 0.00 | 0.00 | 0.00 | 95 | 1015.0 |